W8NES Weather Reports


time (UTC)temp
C
wind
direction
speed
KPH
gust
KPH
rain 1hr
cm
rain 24hr
cm
rain mn
cm
humidity
%
barometer
mb
20260503050057 6 0 0.0 1.6 0.00 0.00 0.00 68 1017.2
20260503044558 6 0 0.0 1.6 0.00 0.00 0.00 67 1017.1
20260503043105 6 0 0.0 0.0 0.00 0.00 0.00 66 1016.9
20260503041556 6 0 0.0 6.4 0.00 0.00 0.00 66 1016.8
20260503034558 6 0 0.0 1.6 0.00 0.00 0.00 63 1016.5
20260503033057 6 78 0.0 1.6 0.00 0.00 0.00 62 1016.5
20260503031556 6 0 0.0 4.8 0.00 0.00 0.00 61 1016.4
20260503024558 7 0 0.0 3.2 0.00 0.00 0.00 57 1016.4
20260503023103 7 97 0.0 4.8 0.00 0.00 0.00 56 1016.2
20260503021602 7 0 0.0 3.2 0.00 0.00 0.00 54 1016.1
20260503020101 8 0 0.0 3.2 0.00 0.00 0.00 52 1015.9
20260503014601 8 0 0.0 4.8 0.00 0.00 0.00 51 1015.8
20260503013058 8 0 1.6 9.7 0.00 0.00 0.00 50 1015.6
20260503011602 9 98 1.6 4.8 0.00 0.00 0.00 51 1015.5
20260503010103 9 67 0.0 4.8 0.00 0.00 0.00 51 1015.3
20260503004610 10 155 0.0 3.2 0.00 0.00 0.00 53 1015.1
20260503003109 10 0 0.0 4.8 0.00 0.00 0.00 50 1014.9
20260503001626 10 0 0.0 4.8 0.00 0.00 0.00 48 1014.7
20260503000057 10 93 1.6 3.2 0.00 0.00 0.00 47 1014.6
20260502234558 10 93 0.0 3.2 0.00 0.00 0.00 49 1014.5
20260502233056 10 103 1.6 12.9 0.00 0.00 0.00 46 1014.4
20260502231555 11 132 1.6 6.4 0.00 0.00 0.00 48 1014.3
20260502230056 11 0 1.6 9.7 0.00 0.00 0.00 46 1014.3
20260502224557 11 0 0.0 6.4 0.00 0.00 0.00 49 1014.3
20260502223101 11 105 1.6 6.4 0.00 0.00 0.00 43 1014.3
20260502221558 11 0 0.0 11.3 0.00 0.00 0.00 45 1014.3
20260502220056 11 0 1.6 11.3 0.00 0.00 0.00 45 1014.2
20260502214555 11 69 1.6 12.9 0.00 0.00 0.00 44 1014.0
20260502213107 12 0 3.2 14.5 0.00 0.00 0.00 43 1014.1
20260502211557 12 61 0.0 8.0 0.00 0.00 0.00 45 1013.9
20260502210057 11 138 0.0 8.0 0.00 0.00 0.00 47 1014.1
20260502204604 11 0 1.6 11.3 0.00 0.00 0.00 47 1014.1
20260502203103 11 0 1.6 9.7 0.00 0.00 0.00 44 1014.2
20260502201559 12 94 1.6 11.3 0.00 0.00 0.00 44 1014.1
20260502200126 12 96 1.6 8.0 0.00 0.00 0.00 45 1014.2
20260502194609 11 0 1.6 12.9 0.00 0.00 0.00 48 1014.4
20260502193057 12 173 1.6 8.0 0.00 0.00 0.00 45 1014.5
20260502191610 12 90 1.6 6.4 0.00 0.00 0.00 47 1014.6
20260502190058 11 0 1.6 9.7 0.00 0.00 0.00 45 1014.8
20260502184600 11 109 1.6 9.7 0.00 0.00 0.00 43 1014.9
20260502183111 11 65 3.2 9.7 0.00 0.00 0.00 47 1015.0
20260502181556 11 146 1.6 6.4 0.00 0.00 0.00 46 1014.9
20260502163102 11 0 3.2 12.9 0.00 0.00 0.00 47 1015.5
20260502161603 10 0 1.6 14.5 0.00 0.00 0.00 50 1015.6
20260502160104 11 304 0.0 8.0 0.00 0.00 0.00 52 1015.6
20260502151610 12 128 1.6 6.4 0.00 0.00 0.00 51 1015.8
20260502150130 10 98 3.2 9.7 0.00 0.00 0.00 56 1015.9
20260502130107 5 308 0.0 3.2 0.00 0.00 0.00 90 1015.8
20260502123057 4 0 1.6 4.8 0.00 0.00 0.00 90 1015.5
20260502121602 3 0 0.0 0.0 0.00 0.00 0.00 90 1015.5
20260502120114 2 0 0.0 0.0 0.00 0.00 0.00 89 1015.6
20260502114615 2 0 0.0 0.0 0.00 0.00 0.00 89 1015.6
20260502113114 2 0 0.0 0.0 0.00 0.00 0.00 88 1015.6
20260502111605 2 0 0.0 0.0 0.00 0.00 0.00 88 1015.4
20260502110104 2 0 0.0 1.6 0.00 0.00 0.00 88 1015.5
20260502104557 2 0 0.0 0.0 0.00 0.00 0.00 88 1015.4
20260502103114 2 0 0.0 0.0 0.00 0.00 0.00 88 1015.0
20260502101608 2 0 0.0 0.0 0.00 0.00 0.00 88 1015.6
20260502090109 2 0 0.0 0.0 0.00 0.00 0.00 86 1015.8
20260502064557 4 0 0.0 1.6 0.00 0.00 0.00 83 1015.3
20260502063124 5 0 0.0 0.0 0.00 0.00 0.00 81 1015.5
20260502061558 5 0 0.0 0.0 0.00 0.00 0.00 79 1015.7
20260502060107 5 0 0.0 0.0 0.00 0.00 0.00 78 1015.9
20260502054617 6 0 0.0 0.0 0.00 0.00 0.00 77 1015.8
20260502053108 6 0 0.0 0.0 0.00 0.00 0.00 75 1016.0
20260502051558 7 0 0.0 0.0 0.00 0.00 0.00 73 1016.1